User: anonymous
Location: Unspecified
(0.0000°N, 0.0000°E)
Time: 13:50:16
(UTC+00:00)
Language:

PLEIADES HR1 - Orbit

View from above orbital plane
View from above orbital plane
View from above satellite
View from above satellite

Ground track
Ground track

The orbit data is extracted from the following two-line orbital elements,

1 38012U 11076F   14262.21137143  .00000446  00000-0  10559-3 0   826
2 38012 098.1886 335.8531 0001450 089.6169 270.5185 14.58586214146804
Epoch (UTC): 19 September 2014 05:04:22
Eccentricity: 0.0001450
inclination: 98.1886°
perigee height: 697 km
apogee height: 699 km
right ascension of ascending node: 335.8531°
argument of perigee: 89.6169°
revolutions per day: 14.58586214
mean anomaly at epoch: 270.5185°
orbit number at epoch: 14680

The dashed part of the orbit path shows where the satellite is in the earth's shadow,  

DLR